CO3D F1

operational
NORAD ID: 64903 Int'l Des: 2025-156 Owner: CNES Country: F
LEOCIRCULARRETROGRADESSO

CO3D F1について

説明を読み込み中...

リアルタイム位置

3D地球を読み込み中...

次回通過

高度履歴

Altitude vs Time

uPlot chart will show altitude changes over time

軌道要素

1 64903U 25156E 25340.88624002 .00004464 00000-0 20917-3 0 9995
2 64903 97.4344 57.2362 0000957 97.1270 263.0074 15.20207827 20319
Epoch: Dec 6, 2025 • Age: 10 hours

現在のステータス

高度 515.6 km
速度 7.61 km/s
衛星直下点 63.77°N, 139.42°W
打ち上げ日 Jul 26, 2025
運用期間 0.3 years
タイプ earth observation

技術仕様

分類 Payload
質量 285.00 kg
乾燥質量 285.00 kg
総質量 285.00 kg
長さ 1.20 m
直径 0.50 m
スパン 2.50 m
形状 Box+ 2 pan
製造者 ADST
バスタイプ Astrobus-SE
フェーズステータス In Orbit
所有者/国 CNES/F

大規模コンステレーション

Loading constellations...